Location: ??
(35.5672°N, 139.6509°E)
Time: 11:57:15
(UTC+00:00)

Cosmos 2333 Rocket - Pass Details

Date: 03 August 2024
Orbit: 838 x 863 km, 70.8° (Epoch: 08 September)

Event Time Altitude Azimuth Distance (km) Brightness Sun altitude
Exits shadow 16:21:03 49° 63° (ENE) 1,101 2.9 -32.7°
Drops below altitude 10° 16:25:30 10° 30° (NNE) 2,499 5.5 -32.3°
Sets 16:28:00 0° 27° (NNE) 3,442 6.5 -32.1°
